H1 CPF 2 NER 2024 8 21 9 234 01 glonass131 H2 1301901 9131 39155 2024 8 21 0 0 0 2024 8 24 23 45 0 900 1 1 0 0 0 1 H9 10 0 60543 0.00000 0 -17200333.944 16992875.777 8275165.089 10 0 60543 900.00000 0 -16394119.578 16097310.750 11194390.580 10 0 60543 1800.00000 0 -15482461.061 14846806.091 13897424.513 10 0 60543 2700.00000 0 -14525196.469 13250296.821 16332118.371 10 0 60543 3600.00000 0 -13580785.930 11329654.229 18451490.527 10 0 60543 4500.00000 0 -12703781.240 9119017.117 20214614.639 10 0 60543 5400.00000 0 -11942475.831 6663623.221 21587395.291 10 0 60543 6300.00000 0 -11336831.685 4018187.436 22543217.461 10 0 60543 7200.00000 0 -10916768.562 1244891.565 23063458.398 10 0 60543 8100.00000 0 -10700886.266 -1588934.004 23137852.612 10 0 60543 9000.00000 0 -10695673.374 -4413343.805 22764702.832 10 0 60543 9900.00000 0 -10895236.217 -7158424.044 21950932.106 10 0 60543 10800.00000 0 -11281560.991 -9756945.584 20711974.613 10 0 60543 11700.00000 0 -11825300.092 -12146915.244 19071505.323 10 0 60543 12600.00000 0 -12487052.176 -14273920.740 17061011.372 10 0 60543 13500.00000 0 -13219084.772 -16093172.234 14719210.848 10 0 60543 14400.00000 0 -13967429.349 -17571155.046 12091327.689 10 0 60543 15300.00000 0 -14674262.421 -18686823.407 9228234.466 10 0 60543 16200.00000 0 -15280473.302 -19432283.696 6185477.858 10 0 60543 17100.00000 0 -15728310.188 -19812936.622 3022204.534 10 0 60543 18000.00000 0 -15963991.759 -19847070.580 -199992.018 10 0 60543 18900.00000 0 -15940171.986 -19564921.811 -3418280.953 10 0 60543 19800.00000 0 -15618151.194 -19007240.122 -6569835.113 10 0 60543 20700.00000 0 -14969736.649 -18223420.595 -9593077.673 10 0 60543 21600.00000 0 -13978670.682 -17269280.911 -12428907.913 10 0 60543 22500.00000 0 -12641562.778 -16204579.695 -15021879.714 10 0 60543 23400.00000 0 -10968283.580 -15090382.865 -17321307.384 10 0 60543 24300.00000 0 -8981802.181 -13986391.701 -19282274.986 10 0 60543 25200.00000 0 -6717472.323 -12948347.997 -20866527.725 10 0 60543 26100.00000 0 -4221797.169 -12025628.094 -22043226.728 10 0 60543 27000.00000 0 -1550724.872 -11259129.028 -22789551.889 10 0 60543 27900.00000 0 1232452.724 -10679536.879 -23091141.036 10 0 60543 28800.00000 0 4059509.024 -10306050.475 -22942357.467 10 0 60543 29700.00000 0 6859897.289 -10145613.412 -22346381.724 10 0 60543 30600.00000 0 9563460.692 -10192685.233 -21315127.310 10 0 60543 31500.00000 0 12103124.094 -10429559.220 -19868983.733 10 0 60543 32400.00000 0 14417455.305 -10827210.860 -18036393.709 10 0 60543 33300.00000 0 16452989.820 -11346638.539 -15853274.641 10 0 60543 34200.00000 0 18166223.558 -11940637.409 -13362297.358 10 0 60543 35100.00000 0 19525192.688 -12555929.427 -10612037.735 10 0 60543 36000.00000 0 20510577.446 -13135558.117 -7656018.924 10 0 60543 36900.00000 0 21116286.922 -13621446.037 -4551663.804 10 0 60543 37800.00000 0 21349503.723 -13957006.825 -1359178.556 10 0 60543 38700.00000 0 21230189.791 -14089702.066 1859610.846 10 0 60543 39600.00000 0 20790076.842 -13973436.117 5042446.878 10 0 60543 40500.00000 0 20071185.920 -13570689.390 8127831.162 10 0 60543 41400.00000 0 19123939.477 -12854301.758 11056195.685 10 0 60543 42300.00000 0 18004945.679 -11808832.554 13771033.311 10 0 60543 43200.00000 0 16774547.488 -10431441.143 16219967.521 10 0 60543 44100.00000 0 15494238.112 -8732251.691 18355742.648 10 0 60543 45000.00000 0 14224049.416 -6734186.691 20137117.432 10 0 60543 45900.00000 0 13020020.595 -4472275.218 21529646.500 10 0 60543 46800.00000 0 11931850.897 -1992462.959 22506336.303 10 0 60543 47700.00000 0 11000832.658 650028.960 23048163.952 10 0 60543 48600.00000 0 10258149.622 3392731.139 23144449.574 10 0 60543 49500.00000 0 9723610.864 6168258.280 22793074.925 10 0 60543 50400.00000 0 9404873.231 8906853.278 22000543.327 10 0 60543 51300.00000 0 9297185.576 11539040.570 20781878.365 10 0 60543 52200.00000 0 9383666.941 13998281.154 19160361.366 10 0 60543 53100.00000 0 9636109.007 16223520.735 17167110.370 10 0 60543 54000.00000 0 10016271.368 18161525.905 14840506.161 10 0 60543 54900.00000 0 10477617.405 19768911.034 12225473.912 10 0 60543 55800.00000 0 10967419.571 21013770.350 9372632.055 10 0 60543 56700.00000 0 11429146.556 21876845.427 6337323.054 10 0 60543 57600.00000 0 11805031.992 22352177.198 3178543.687 10 0 60543 58500.00000 0 12038715.570 22447212.986 -42204.797 10 0 60543 59400.00000 0 12077843.369 22182362.194 -3262123.915 10 0 60543 60300.00000 0 11876514.974 21590017.918 -6418358.006 10 0 60543 61200.00000 0 11397470.823 20713085.046 -9449241.162 10 0 60543 62100.00000 0 10613923.923 19603077.010 -12295524.550 10 0 60543 63000.00000 0 9510955.062 18317862.474 -14901557.777 10 0 60543 63900.00000 0 8086409.581 16919158.706 -17216398.766 10 0 60543 64800.00000 0 6351255.327 15469879.569 -19194828.297 10 0 60543 65700.00000 0 4329384.981 14031452.360 -20798247.605 10 0 60543 66600.00000 0 2056870.164 12661218.916 -21995440.226 10 0 60543 67500.00000 0 -419301.451 11410032.374 -22763182.584 10 0 60543 68400.00000 0 -3042952.498 10320151.993 -23086691.418 10 0 60543 69300.00000 0 -5750832.374 9423525.078 -22959899.847 10 0 60543 70200.00000 0 -8475034.021 8740527.758 -22385557.819 10 0 60543 71100.00000 0 -11145608.826 8279216.212 -21375156.427 10 0 60543 72000.00000 0 -13693269.489 8035117.716 -19948679.281 10 0 60543 72900.00000 0 -16052067.680 7991567.583 -18134187.675 10 0 60543 73800.00000 0 -18161934.954 8120574.853 -15967249.420 10 0 60543 74700.00000 0 -19970981.844 8384177.234 -13490224.261 10 0 60543 75600.00000 0 -21437460.806 8736225.441 -10751421.321 10 0 60543 76500.00000 0 -22531313.353 9124519.410 -7804146.228 10 0 60543 77400.00000 0 -23235239.436 9493204.601 -4705657.449 10 0 60543 78300.00000 0 -23545247.387 9785326.378 -1516052.664 10 0 60543 79200.00000 0 -23470664.451 9945434.505 1702893.022 10 0 60543 80100.00000 0 -23033610.225 9922128.367 4888914.712 10 0 60543 81000.00000 0 -22267957.422 9670436.632 7980448.887 10 0 60543 81900.00000 0 -21217825.082 9153932.436 10917806.124 10 0 60543 82800.00000 0 -19935668.233 8346496.510 13644304.130 10 0 60543 83700.00000 0 -18480043.977 7233655.377 16107340.898 10 0 60543 84600.00000 0 -16913146.677 5813439.298 18259389.255 10 0 60543 85500.00000 0 -15298213.839 4096724.206 20058895.483 10 0 60544 0.00000 0 -13696909.299 2107042.939 21471066.478 10 0 60544 900.00000 0 -12166789.887 -120128.869 22468532.540 10 0 60544 1800.00000 0 -10758961.307 -2538581.971 23031872.356 10 0 60544 2700.00000 0 -9516016.273 -5093033.792 23149993.218 10 0 60544 3600.00000 0 -8470341.710 -7721171.538 22820357.111 10 0 60544 4500.00000 0 -7642864.111 -10355997.673 22049048.458 10 0 60544 5400.00000 0 -7042285.661 -12928383.519 20850680.685 10 0 60544 6300.00000 0 -6664843.845 -15369727.810 19248141.496 10 0 60544 7200.00000 0 -6494606.033 -17614611.849 17272179.433 10 0 60544 8100.00000 0 -6504288.514 -19603342.138 14960837.160 10 0 60544 9000.00000 0 -6656567.601 -21284274.903 12358739.861 10 0 60544 9900.00000 0 -6905829.475 -22615824.879 9516250.221 10 0 60544 10800.00000 0 -7200286.459 -23568072.997 6488504.557 10 0 60544 11700.00000 0 -7484371.118 -24123903.616 3334347.502 10 0 60544 12600.00000 0 -7701306.863 -24279621.281 115185.550 10 0 60544 13500.00000 0 -7795745.247 -24045018.790 -3106217.952 10 0 60544 14400.00000 0 -7716356.327 -23442891.774 -6266981.850 10 0 60544 15300.00000 0 -7418259.730 -22508018.884 -9305354.364 10 0 60544 16200.00000 0 -6865190.277 -21285650.018 -12161941.937 10 0 60544 17100.00000 0 -6031303.198 -19829566.629 -14780893.369 10 0 60544 18000.00000 0 -4902539.306 -18199797.003 -17111013.670 10 0 60544 18900.00000 0 -3477489.720 -16460084.563 -19106783.666 10 0 60544 19800.00000 0 -1767721.441 -14675217.988 -20729263.687 10 0 60544 20700.00000 0 202451.272 -12908337.792 -21946862.341 10 0 60544 21600.00000 0 2396740.701 -11218334.682 -22735954.756 10 0 60544 22500.00000 0 4768171.965 -9657450.529 -23081338.178 10 0 60544 23400.00000 0 7260827.093 -8269183.494 -22976516.556 10 0 60544 24300.00000 0 9811972.670 -7086585.148 -22423809.667 10 0 60544 25200.00000 0 12354480.807 -6131019.959 -21434286.033 10 0 60544 26100.00000 0 14819441.018 -5411437.331 -20027522.702 10 0 60544 27000.00000 0 17138853.106 -4924184.107 -18231198.358 10 0 60544 27900.00000 0 19248288.313 -4653362.274 -16080529.553 10 0 60544 28800.00000 0 21089407.929 -4571713.518 -13617562.806 10 0 60544 29700.00000 0 22612235.218 -4641990.138 -10890337.897 10 0 60544 30600.00000 0 23777087.460 -4818751.677 -7951939.935 10 0 60544 31500.00000 0 24556089.553 -5050509.210 -4859459.641 10 0 60544 32400.00000 0 24934208.531 -5282125.241 -1672882.634 10 0 60544 33300.00000 0 24909768.490 -5457367.133 1546070.516 10 0 60544 34200.00000 0 24494427.044 -5521506.305 4735131.185 10 0 60544 35100.00000 0 23712616.674 -5423854.156 7832674.184 10 0 60544 36000.00000 0 22600476.143 -5120128.947 10778891.892 10 0 60544 36900.00000 0 21204317.811 -4574555.289 13516929.701 10 0 60544 37800.00000 0 19578695.226 -3761609.308 15993962.571 10 0 60544 38700.00000 0 17784151.227 -2667337.243 18162193.842 10 0 60544 39600.00000 0 15884739.361 -1290192.758 19979758.949 10 0 60544 40500.00000 0 13945420.164 358642.205 21411518.472 10 0 60544 41400.00000 0 12029438.603 2255467.393 22429726.870 10 0 60544 42300.00000 0 10195789.650 4364798.020 23014565.144 10 0 60544 43200.00000 0 8496875.280 6640594.258 23154527.825 10 0 60544 44100.00000 0 6976448.634 9027938.398 22846656.841 10 0 60544 45000.00000 0 5667929.746 11465093.244 22096617.065 10 0 60544 45900.00000 0 4593162.464 13885859.653 20918610.765 10 0 60544 46800.00000 0 3761664.625 16222138.288 19335130.694 10 0 60544 47700.00000 0 3170403.688 18406591.595 17376554.282 10 0 60544 48600.00000 0 2804108.609 20375296.888 15080584.204 10 0 60544 49500.00000 0 2636106.606 22070280.752 12491543.565 10 0 60544 50400.00000 0 2629651.375 23441828.686 9659537.043 10 0 60544 51300.00000 0 2739688.370 24450472.262 6639492.386 10 0 60544 52200.00000 0 2914983.621 25068568.631 3490099.541 10 0 60544 53100.00000 0 3100526.413 25281403.701 272667.631 10 0 60544 54000.00000 0 3240103.538 25087770.051 -2950077.782 10 0 60544 54900.00000 0 3278934.636 24499992.870 -6115232.667 10 0 60544 55800.00000 0 3166254.658 23543400.877 -9160961.889 10 0 60544 56700.00000 0 2857731.180 22255263.279 -12027729.529 10 0 60544 57600.00000 0 2317610.918 20683237.175 -14659485.756 10 0 60544 58500.00000 0 1520501.371 18883391.247 -17004784.612 10 0 60544 59400.00000 0 452709.233 16917890.240 -19017808.715 10 0 60544 60300.00000 0 -886923.388 14852439.393 -20659279.007 10 0 60544 61200.00000 0 -2486721.979 12753598.409 -21897230.481 10 0 60544 62100.00000 0 -4322435.307 10686079.798 -22707638.046 10 0 60544 63000.00000 0 -6358033.220 8710146.693 -23074880.261 10 0 60544 63900.00000 0 -8547012.523 6879220.353 -22992032.398 10 0 60544 64800.00000 0 -10834155.143 5237797.901 -22460984.164 10 0 60544 65700.00000 0 -13157663.655 3819766.857 -21492381.197 10 0 60544 66600.00000 0 -15451583.406 2647185.518 -20105393.193 10 0 60544 67500.00000 0 -17648408.793 1729577.879 -18327314.997 10 0 60544 68400.00000 0 -19681764.016 1063769.574 -16193010.282 10 0 60544 69300.00000 0 -21489045.991 634268.295 -13744210.396 10 0 60544 70200.00000 0 -23013919.421 414169.130 -11028683.613 10 0 60544 71100.00000 0 -24208560.797 366543.371 -8099292.228 10 0 60544 72000.00000 0 -25035559.142 446249.415 -5012956.858 10 0 60544 72900.00000 0 -25469396.132 602087.171 -1829548.692 10 0 60544 73800.00000 0 -25497446.101 779203.672 1389268.604 10 0 60544 74700.00000 0 -25120456.500 921647.778 4581225.025 10 0 60544 75600.00000 0 -24352491.044 974966.335 7684636.059 10 0 60544 76500.00000 0 -23220339.753 888733.130 10639578.215 10 0 60544 77400.00000 0 -21762421.844 618905.262 13389026.866 10 0 60544 78300.00000 0 -20027227.853 129909.177 15879936.159 10 0 60544 79200.00000 0 -18071365.733 -603630.026 18064242.047 10 0 60544 80100.00000 0 -15957291.422 -1595587.667 19899771.026 10 0 60544 81000.00000 0 -13750816.722 -2847521.064 21351038.929 10 0 60544 81900.00000 0 -11518496.035 -4348368.278 22389926.014 10 0 60544 82800.00000 0 -9324998.226 -6074677.805 22996216.517 10 0 60544 83700.00000 0 -7230570.428 -7991361.652 23157992.958 10 0 60544 84600.00000 0 -5288696.972 -10052943.136 22871877.631 10 0 60544 85500.00000 0 -3544049.104 -12205250.604 22143115.971 10 0 60545 0.00000 0 -2030809.792 -14387489.774 20985499.025 10 0 60545 900.00000 0 -771442.246 -16534612.857 19421123.914 10 0 60545 1800.00000 0 224044.128 -18579885.710 17479996.280 10 0 60545 2700.00000 0 958301.407 -20457552.039 15199477.751 10 0 60545 3600.00000 0 1446312.282 -22105481.808 12623588.016 10 0 60545 4500.00000 0 1714533.742 -23467694.520 9802172.137 10 0 60545 5400.00000 0 1799549.659 -24496650.801 6789947.424 10 0 60545 6300.00000 0 1746287.887 -25155214.533 3645447.063 10 0 60545 7200.00000 0 1605876.551 -25418200.787 429880.517 10 0 60545 8100.00000 0 1433230.391 -25273441.771 -2794066.889 10 0 60545 9000.00000 0 1284470.375 -24722323.152 -5963470.855 10 0 60545 9900.00000 0 1214287.763 -23779765.708 -9016415.652 10 0 60545 10800.00000 0 1273366.872 -22473651.187 -11893225.873 10 0 60545 11700.00000 0 1505978.743 -20843715.440 -14537655.999 10 0 60545 12600.00000 0 1947850.780 -18939955.225 -16898012.067 10 0 60545 13500.00000 0 2624405.583 -16820616.348 -18928181.333 10 0 60545 14400.00000 0 3549446.033 -14549849.028 -20588548.006 10 0 60545 15300.00000 0 4724344.174 -12195130.775 -21846775.798 10 0 60545 16200.00000 0 6137769.352 -9824566.877 -22678441.318 10 0 60545 17100.00000 0 7765967.510 -7504183.401 -23067505.891 10 0 60545 18000.00000 0 9573579.625 -5295327.485 -23006617.042 10 0 60545 18900.00000 0 11514963.996 -3252284.324 -22497234.814 10 0 60545 19800.00000 0 13535965.663 -1420210.338 -21549581.853 10 0 60545 20700.00000 0 15576057.244 166532.183 -20182419.898 10 0 60545 21600.00000 0 17570760.125 1485571.298 -18422658.872 10 0 60545 22500.00000 0 19454243.472 2527205.276 -16304808.002 10 0 60545 23400.00000 0 21161991.560 3294540.957 -13870281.446 10 0 60545 24300.00000 0 22633427.645 3803088.480 -11166573.503 10 0 60545 25200.00000 0 23814385.078 4079833.071 -8246320.786 10 0 60545 26100.00000 0 24659323.309 4161826.265 -5166270.607 10 0 60545 27000.00000 0 25133197.654 4094358.690 -1986176.288 10 0 60545 27900.00000 0 25212906.571 3928793.459 1232358.954 10 0 60545 28800.00000 0 24888258.012 3720152.766 4427067.266 10 0 60545 29700.00000 0 24162416.545 3524559.814 7536208.196 10 0 60545 30600.00000 0 23051814.395 3396643.557 10499745.519 10 0 60545 31500.00000 0 21585531.437 3387014.630 13260487.397 10 0 60545 32400.00000 0 19804170.750 3539917.399 15765169.597 10 0 60545 33300.00000 0 17758276.573 3891155.404 17965462.730 10 0 60545 34200.00000 0 15506359.748 4466376.062 19818886.010 10 0 60545 35100.00000 0 13112611.328 5279785.714 21289611.792 10 0 60545 36000.00000 0 10644397.258 6333348.650 22349147.041 10 0 60545 36900.00000 0 8169635.767 7616504.180 22976879.758 10 0 60545 37800.00000 0 5754163.715 9106414.980 23160480.601 10 0 60545 38700.00000 0 3459198.708 10768738.553 22896151.985 10 0 60545 39600.00000 0 1339000.226 12558892.429 22188719.262 10 0 60545 40500.00000 0 -561174.660 14423763.522 21051560.949 10 0 60545 41400.00000 0 -2206736.857 16303793.691 19506377.502 10 0 60545 42300.00000 0 -3574982.871 18135357.485 17582800.792 10 0 60545 43200.00000 0 -4655813.110 19853335.339 15317849.295 10 0 60545 44100.00000 0 -5451919.763 21393776.348 12755236.937 10 0 60545 45000.00000 0 -5978434.861 22696539.886 9944546.638 10 0 60545 45900.00000 0 -6262051.799 23707805.035 6940282.635 10 0 60545 46800.00000 0 -6339655.930 24382341.179 3800818.632 10 0 60545 47700.00000 0 -6256521.111 24685442.168 587261.699 10 0 60545 48600.00000 0 -6064148.175 24594439.955 -2637745.810 10 0 60545 49500.00000 0 -5817837.376 24099730.993 -5811261.995 10 0 60545 50400.00000 0 -5574099.011 23205269.249 -8871293.082 10 0 60545 51300.00000 0 -5388014.068 21928502.646 -11758026.565 10 0 60545 52200.00000 0 -5310659.445 20299753.758 -14415023.413 10 0 60545 53100.00000 0 -5386709.791 18361069.956 -16790343.587 10 0 60545 54000.00000 0 -5652320.506 16164591.271 -18837580.669 10 0 60545 54900.00000 0 -6133384.157 13770505.303 -20516783.564 10 0 60545 55800.00000 0 -6844236.172 11244676.433 -21795245.870 10 0 60545 56700.00000 0 -7786865.928 8656050.423 -22648146.812 10 0 60545 57600.00000 0 -8950667.155 6073944.893 -23059031.086 10 0 60545 58500.00000 0 -10312738.101 3565340.572 -23020118.749 10 0 60545 59400.00000 0 -11838718.013 1192287.524 -22532440.077 10 0 60545 60300.00000 0 -13484123.541 -990465.063 -21605794.185 10 0 60545 61200.00000 0 -15196127.301 -2937517.131 -20258533.863 10 0 60545 62100.00000 0 -16915702.345 -4614460.100 -18517182.672 10 0 60545 63000.00000 0 -18580041.076 -5999047.050 -16415893.544 10 0 60545 63900.00000 0 -20125146.035 -7081844.891 -13995761.263 10 0 60545 64800.00000 0 -21488483.308 -7866344.794 -11304003.720 10 0 60545 65700.00000 0 -22611587.286 -8368529.991 -8393029.254 10 0 60545 66600.00000 0 -23442508.139 -8615922.709 -5319409.208 10 0 60545 67500.00000 0 -23938000.563 -8646153.535 -2142776.357 10 0 60545 68400.00000 0 -24065363.638 -8505116.038 1075329.199 10 0 60545 69300.00000 0 -23803856.551 -8244786.132 4272644.371 10 0 60545 70200.00000 0 -23145632.829 -7920799.038 7387375.330 10 0 60545 71100.00000 0 -22096155.708 -7589885.997 10359375.587 10 0 60545 72000.00000 0 -20674078.653 -7307278.094 13131288.449 10 0 60545 72900.00000 0 -18910596.820 -7124185.258 15649633.497 10 0 60545 73800.00000 0 -16848296.615 -7085454.984 17865817.970 10 0 60545 74700.00000 0 -14539550.622 -7227507.596 19737055.489 10 0 60545 75600.00000 0 -12044523.304 -7576633.423 21227176.307 10 0 60545 76500.00000 0 -9428868.290 -8147722.437 22307315.089 10 0 60545 77400.00000 0 -6761210.361 -8943479.485 22956464.238 10 0 60545 78300.00000 0 -4110513.825 -9954158.603 23161882.816 10 0 60545 79200.00000 0 -1543443.657 -11157829.086 22919353.282 10 0 60545 80100.00000 0 878173.648 -12521164.442 22233280.520 10 0 60545 81000.00000 0 3099686.146 -14000724.120 21116629.985 10 0 60545 81900.00000 0 5075653.804 -15544677.571 19590704.347 10 0 60545 82800.00000 0 6771502.950 -17094901.676 17684760.644 10 0 60545 83700.00000 0 8164728.762 -18589366.543 15435472.803 10 0 60545 84600.00000 0 9245594.765 -19964711.879 12886247.347 10 0 60545 85500.00000 0 10017298.736 -21158907.119 10086403.160 10 0 60546 0.00000 0 10495596.519 -22113883.762 7090229.547 10 0 60546 900.00000 0 10707898.260 -22778028.875 3955937.850 10 0 60546 1800.00000 0 10691873.371 -23108431.805 744530.493 10 0 60546 2700.00000 0 10493623.344 -23072788.604 -2481395.753 10 0 60546 3600.00000 0 10165499.075 -22650879.527 -5658884.075 10 0 60546 4500.00000 0 9763656.256 -21835554.740 -8725865.352 10 0 60546 5400.00000 0 9345454.039 -20633183.645 -11622392.663 10 0 60546 6300.00000 0 8966809.467 -19063546.500 -14291836.092 10 0 60546 7200.00000 0 8679622.481 -17159171.256 -16682012.050 10 0 60546 8100.00000 0 8529383.408 -14964142.757 -18746222.807 10 0 60546 9000.00000 0 8553066.868 -12532434.430 -20444184.085 10 0 60546 9900.00000 0 8777403.416 -9925833.328 -21742821.185 10 0 60546 10800.00000 0 9217603.543 -7211546.918 -22616917.365 10 0 60546 11700.00000 0 9876588.746 -4459593.344 -23049601.691 10 0 60546 12600.00000 0 10744762.117 -1740085.944 -23032667.271 10 0 60546 13500.00000 0 11800327.422 879473.361 -22566714.667 10 0 60546 14400.00000 0 13010141.949 3336778.211 -21661119.057 10 0 60546 15300.00000 0 14331065.537 5577071.765 -20333823.439 10 0 60546 16200.00000 0 15711747.196 7555173.280 -18610963.733 10 0 60546 17100.00000 0 17094772.423 9237094.651 -16526334.905 10 0 60546 18000.00000 0 18419079.430 10601182.002 -14120710.282 10 0 60546 18900.00000 0 19622541.684 11638737.898 -11441028.903 10 0 60546 19800.00000 0 20644607.741 12354101.768 -8539468.039 10 0 60546 20700.00000 0 21428887.575 12764188.835 -5472419.992 10 0 60546 21600.00000 0 21925577.454 12897510.416 -2299393.707 10 0 60546 22500.00000 0 22093622.770 12792719.759 918137.195 10 0 60546 23400.00000 0 21902529.577 12496746.862 4117917.745 10 0 60546 24300.00000 0 21333750.582 12062602.259 7238103.945 10 0 60546 25200.00000 0 20381589.156 11546942.796 10218442.027 10 0 60546 26100.00000 0 19053584.913 11007501.609 13001413.132 10 0 60546 27000.00000 0 17370365.586 10500489.499 15533322.987 10 0 60546 27900.00000 0 15364971.648 10078075.496 17765317.439 10 0 60546 28800.00000 0 13081681.342 9786050.803 19654306.136 10 0 60546 29700.00000 0 10574383.756 9661772.497 21163778.468 10 0 60546 30600.00000 0 7904565.617 9732471.885 22264497.701 10 0 60546 31500.00000 0 5138992.920 10013997.619 22935061.154 10 0 60546 32400.00000 0 2347180.652 10510046.125 23162316.417 10 0 60546 33300.00000 0 -401247.445 11211912.324 22941625.704 10 0 60546 34200.00000 0 -3039202.426 12098772.653 22276972.694 10 0 60546 35100.00000 0 -5504669.809 13138490.810 21180908.599 10 0 60546 36000.00000 0 -7743041.777 14288915.264 19674336.671 10 0 60546 36900.00000 0 -9709146.019 15499617.153 17786137.072 10 0 60546 37800.00000 0 -11368887.012 16713998.568 15552636.799 10 0 60546 38700.00000 0 -12700430.818 17871685.172 13016932.330 10 0 60546 39600.00000 0 -13694882.713 18911104.293 10228075.702 10 0 60546 40500.00000 0 -14356427.754 19772140.799 7240137.851 10 0 60546 41400.00000 0 -14701926.748 20398758.602 4111165.953 10 0 60546 42300.00000 0 -14759983.148 20741475.937 902054.424 10 0 60546 43200.00000 0 -14569519.176 20759587.754 -2324648.307 10 0 60546 44100.00000 0 -14177920.945 20423038.544 -5505973.147 10 0 60546 45000.00000 0 -13638831.379 19713863.310 -8579778.121 10 0 60546 45900.00000 0 -13009685.566 18627132.664 -11485984.198 10 0 60546 46800.00000 0 -12349094.761 17171359.294 -14167772.661 10 0 60546 47700.00000 0 -11714192.237 15368346.458 -16572718.186 10 0 60546 48600.00000 0 -11158056.024 13252483.425 -18653833.267 10 0 60546 49500.00000 0 -10727320.187 10869516.879 -20370501.681 10 0 60546 50400.00000 0 -10460077.978 8274850.183 -21689281.362 10 0 60546 51300.00000 0 -10384167.168 5531442.662 -22584560.233 10 0 60546 52200.00000 0 -10515910.956 2707398.233 -23039052.042 10 0 60546 53100.00000 0 -10859367.728 -126654.303 -23044122.938 10 0 60546 54000.00000 0 -11406120.659 -2900278.523 -22599943.406 10 0 60546 54900.00000 0 -12135614.730 -5545930.892 -21715463.941 10 0 60546 55800.00000 0 -13016025.117 -8001531.570 -20408216.604 10 0 60546 56700.00000 0 -14005618.287 -10212798.787 -18703948.161 10 0 60546 57600.00000 0 -15054546.371 -12135250.788 -16636093.724 10 0 60546 58500.00000 0 -16106997.305 -13735793.902 -14245102.995 10 0 60546 59400.00000 0 -17103608.697 -14993833.263 -11577633.758 10 0 60546 60300.00000 0 -17984042.781 -15901863.086 -8685629.676 10 0 60546 61200.00000 0 -18689613.671 -16465515.316 -5625301.390 10 0 60546 62100.00000 0 -19165856.603 -16703068.197 -2456031.387 10 0 60546 63000.00000 0 -19364931.856 -16644438.577 760775.811 10 0 60546 63900.00000 0 -19247763.531 -16329702.960 3962875.932 10 0 60546 64800.00000 0 -18785824.824 -15807211.356 7088377.340 10 0 60546 65700.00000 0 -17962496.421 -15131374.328 10076921.441 10 0 60546 66600.00000 0 -16773942.441 -14360216.450 12870829.551 10 0 60546 67500.00000 0 -15229468.258 -13552798.403 15416195.749 10 0 60546 68400.00000 0 -13351345.636 -12766614.757 17663906.468 10 0 60546 69300.00000 0 -11174112.184 -12055074.975 19570569.094 10 0 60546 70200.00000 0 -8743373.262 -11465171.471 21099333.556 10 0 60546 71100.00000 0 -6114154.322 -11035430.691 22220592.741 10 0 60546 72000.00000 0 -3348869.740 -10794231.701 22912549.543 10 0 60546 72900.00000 0 -514989.474 -10758561.873 23161640.358 10 0 60546 73800.00000 0 2317502.835 -10933261.768 22962807.082 10 0 60546 74700.00000 0 5078757.990 -11310791.581 22319611.787 10 0 60546 75600.00000 0 7701708.616 -11871530.529 21244190.733 10 0 60546 76500.00000 0 10124608.173 -12584598.840 19757046.783 10 0 60546 77400.00000 0 12293357.613 -13409170.481 17886681.985 10 0 60546 78300.00000 0 14163523.573 -14296224.265 15669074.900 10 0 60546 79200.00000 0 15701963.806 -15190662.259 13147010.162 10 0 60546 80100.00000 0 16887991.066 -16033708.331 10369270.884 10 0 60546 81000.00000 0 17714025.247 -16765486.968 7389707.533 10 0 60546 81900.00000 0 18185704.713 -17327673.828 4266199.928 10 0 60546 82800.00000 0 18321450.366 -17666105.294 1059531.895 10 0 60546 83700.00000 0 18151499.401 -17733234.976 -2167799.459 10 0 60546 84600.00000 0 17716448.624 -17490330.750 -5352815.776 10 0 60546 85500.00000 0 17065368.698 -16909316.336 -8433305.186 99